Location: Marcé
(47.5801°N, 0.3280°W)
Time: 18:04:59
(UTC+01:00)

Tiros 1 - Pass Details

Date: 08 December 2021
Orbit: 629 x 664 km, 48.4° (Epoch: 26 January)

Event Time Altitude Azimuth Distance (km) Brightness Sun altitude
Rises 16:24:53 0° 185° (S) 2,900 11.3 5.1°
Reaches altitude 10° 16:28:48 10° 152° (SSE) 2,002 9.9 4.6°
Maximum altitude 16:30:16 11° 133° (SE) 1,913 9.6 4.5°
Drops below altitude 10° 16:31:44 10° 115° (ESE) 2,010 9.5 4.3°
Sets 16:35:40 0° 82° (E) 2,931 10.0 3.8°
